#timestamp,LO_Frequency,Hit,StdDev 
1624176015.8,286046999.5,N
1624176035.6,286046996.9,N
1624176055.5,286046996.9,N
1624176075.3,286046997.1,N
1624176125.2,286046996.9,E
1624176135.1,286047000.7,N
1624176136.0,286047000.7,P
1624176155.8,286046999.7,P
1624176175.7,286047001.5,Y
1624176195.5,286047002.8,P
1624176215.4,286046999.8,N
1624176235.2,286047002.2,N
1624176255.0,286047000.3,N
1624176255.9,286047000.3,N
1624176275.8,286047001.1,N
1624176295.6,286047000.8,N
1624176315.4,286046998.7,N
1624176335.3,286046996.5,Y
1624176355.1,286046996.6,P
1624176375.9,286046997.4,N
1624176395.7,286046995.0,N
1624176415.5,286046998.0,N
1624176435.4,286046995.7,N
1624176455.2,286046996.1,N
1624176475.1,286046996.1,N
1624176476.0,286046996.1,N
1624176495.8,286046995.2,Y
1624176515.6,286046999.3,P
1624176535.5,286046998.8,N
1624176555.8,286046999.4,N
1624176575.7,286046998.4,N
1624176595.5,286046998.8,N
1624176615.3,286047001.1,N
1624176635.2,286047001.0,N
1624176655.0,286046999.8,N
1624176655.9,286046999.8,N
1624176675.7,286047001.7,N
1624176695.6,286047004.2,Y
1624176715.4,286047003.1,P
1624176735.3,286047005.6,P
1624176755.1,286047005.9,N
1624176756.0,286047005.9,N
1624176775.8,286047003.4,N
1624176795.7,286047005.6,N
1624176815.5,286047003.0,N
1624176835.3,286047005.0,N
1624176855.2,286047005.6,N
1624176875.0,286047005.6,N
1624176875.9,286047005.6,N
1624176895.8,286047005.2,N
1624176915.6,286047005.4,Y
1624176935.5,286047000.3,P
1624176955.3,286047002.4,N
1624176975.1,286047000.4,N
1624176995.9,286047002.8,N
1624177015.7,286047002.3,N
1624177035.1,286047002.4,N
1624177036.0,286047002.4,N
1624177055.8,286047002.8,N
1624177075.6,286047000.0,N
1624177095.5,286047000.6,N
1624177115.3,286047000.1,N
1624177135.2,286046999.7,N
1624177155.9,286047000.4,N
1624177175.7,286047000.0,N
1624177195.6,286047000.2,N
1624177215.4,286046999.8,N
1624177235.2,286046999.9,N
1624177255.1,286047002.7,N
1624177256.0,286047002.7,N
1624177275.8,286047000.1,N
1624177295.7,286046998.2,N
1624177315.5,286046999.0,N
1624177335.3,286046998.6,N
1624177355.2,286046998.9,N
1624177375.0,286046998.9,N
1624177375.9,286046998.9,N
1624177395.7,286046999.0,N
1624177415.6,286046998.3,N
1624177435.4,286046998.7,N
1624177455.3,286046998.8,N
1624177475.1,286046998.7,N
1624177476.0,286046998.7,N
1624177495.8,286047000.5,N
1624177515.7,286047000.9,N
1624177535.5,286047000.3,N
1624177555.3,286047000.5,N
1624177575.2,286046999.8,N
1624177595.0,286047000.1,N
1624177595.9,286047000.1,N
1624177615.8,286047000.5,N
1624177635.6,286047002.2,N
1624177655.5,286047002.1,N
1624177675.3,286047002.2,N
1624177695.1,286047001.8,N
1624177715.9,286047002.6,N
1624177735.7,286047002.6,N
1624177755.6,286047002.0,N
1624177775.4,286047002.1,N
1624177795.2,286047002.7,N
1624177815.1,286047002.4,N
1624177816.0,286047002.4,N
1624177835.8,286047000.0,N
1624177855.6,286047002.6,N
1624177875.5,286047002.3,N
1624177895.3,286046999.8,N
1624177915.2,286047002.3,N
1624177935.9,286047002.1,N
1624177955.7,286047002.3,N
1624177975.6,286047002.2,N
1624177995.4,286046999.8,N
1624178015.2,286047002.7,N
1624178035.1,286047002.8,N
1624178036.0,286047002.8,N
1624178055.8,286046999.7,N
1624178075.7,286047002.4,N
1624178095.5,286047002.3,N
1624178115.3,286047002.8,N
1624178135.2,286046999.9,N
1624178155.0,286047000.2,N
1624178155.9,286047000.2,N
1624178175.8,286046999.8,N
1624178195.6,286047002.5,N
1624178215.4,286047002.4,N
1624178235.3,286047002.3,N
1624178255.1,286047002.5,N
1624178275.9,286046999.7,N
1624178295.7,286047002.0,N
1624178315.5,286047002.3,N
1624178335.4,286047001.1,N
1624178355.2,286047000.9,N
1624178375.0,286047001.0,N
1624178375.9,286047001.0,N
1624178395.8,286047000.3,N
1624178415.6,286047001.1,N
1624178435.5,286047001.2,N
1624178455.3,286047000.8,N
1624178475.1,286046998.5,N
1624178495.9,286046998.3,N
1624178515.7,286046998.3,N
1624178535.5,286046999.5,N
1624178555.4,286046998.9,N
1624178575.2,286046999.2,N
1624178595.1,286046997.4,N
1624178596.0,286046997.4,N
1624178615.8,286046997.5,N
1624178635.6,286046996.7,N
1624178655.5,286046996.5,N
1624178675.3,286046995.8,N
1624178695.1,286046997.8,N
1624178715.9,286046997.9,N
1624178735.7,286046999.1,N
1624178755.6,286047001.2,N
1624178775.4,286046998.6,N
1624178795.2,286046996.6,N
1624178815.1,286046999.0,N
1624178816.0,286046999.0,N
1624178835.8,286046996.5,N
1624178855.6,286046997.8,N
1624178875.5,286046999.3,N
1624178895.3,286046998.3,N
1624178915.2,286046998.1,N
1624178935.9,286047000.6,N
1624178955.7,286047001.1,N
1624178975.6,286047000.8,N
1624178995.4,286046999.7,N
1624179015.2,286046999.7,N
1624179035.1,286047002.4,N
1624179036.0,286047002.4,N
1624179055.8,286047001.9,N
1624179075.7,286047002.0,N
1624179095.5,286047002.0,N
1624179115.3,286047001.6,N
1624179135.2,286047002.2,N
1624179155.0,286047001.6,N
1624179155.9,286047001.6,N
1624179175.8,286046999.7,N
1624179195.6,286047002.6,N
1624179215.4,286047002.8,N
1624179235.3,286047002.2,N
1624179255.1,286047001.5,N
1624179275.9,286047003.5,N
1624179295.7,286047004.1,N
1624179315.5,286047002.1,N
1624179335.4,286047002.1,N
1624179355.2,286047001.3,N
1624179375.0,286047001.4,N
1624179375.9,286047001.4,N
1624179395.8,286047001.8,N
1624179415.6,286047001.7,N
1624179435.5,286047004.3,Y
1624179455.3,286047002.6,P
1624179475.1,286047002.2,P
1624179495.9,286047001.4,N
1624179515.7,286047001.5,N
1624179535.5,286047004.3,Y
1624179555.4,286046999.8,P
1624179575.2,286047002.4,N
1624179595.1,286047000.3,N
1624179596.0,286047000.3,N
